TVP7486 EPKT-LGTS

Flight info

Callsign TVP7486
Flight time 1h 35m
Altitude 37000
Route BABKO DCT DEMOP DCT PARAK DCT RAXAD DCT MAKED P36 ALIKO
Aircraft B738/M-SDE3FGHIJ1RWXYZ/LB1

Departure

Time 2026-05-05 14:38
Airport Katowice Wojciech Korfanty International Airport (EPKT)

Arrival

Time 2026-05-05 16:13
Airport Thessaloniki Macedonia International Airport (LGTS)
Time Latitude Longitude Altitude Speed Heading
2026-05-05 14:08 50.47148 19.08629 997 ft 0 kts 180°
2026-05-05 14:29 50.47165 19.08629 1000 ft 4 kts 180°
2026-05-05 14:29 50.47192 19.08629 1001 ft 4 kts 180°
2026-05-05 14:29 50.47213 19.08628 999 ft 4 kts 165°
2026-05-05 14:29 50.47231 19.08608 998 ft 4 kts 102°
2026-05-05 14:30 50.47232 19.08569 997 ft 4 kts 90°
2026-05-05 14:30 50.47232 19.08554 997 ft 0 kts 90°
2026-05-05 14:33 50.47232 19.08558 997 ft 1 kts 89°
2026-05-05 14:33 50.47232 19.08598 997 ft 6 kts 90°
2026-05-05 14:33 50.47231 19.08685 1001 ft 9 kts 90°
2026-05-05 14:33 50.47231 19.08778 997 ft 8 kts 90°
2026-05-05 14:34 50.47231 19.08869 1003 ft 8 kts 90°
2026-05-05 14:34 50.47231 19.08957 1000 ft 8 kts 90°
2026-05-05 14:34 50.47231 19.09042 1003 ft 8 kts 90°
2026-05-05 14:34 50.47231 19.09143 1003 ft 11 kts 90°
2026-05-05 14:35 50.47230 19.09259 999 ft 11 kts 90°
2026-05-05 14:35 50.47250 19.09377 1001 ft 12 kts 38°
2026-05-05 14:35 50.47332 19.09388 999 ft 12 kts 360°
2026-05-05 14:35 50.47414 19.09389 999 ft 12 kts
2026-05-05 14:36 50.47499 19.09391 998 ft 13 kts
2026-05-05 14:36 50.47585 19.09384 1000 ft 12 kts 330°
2026-05-05 14:36 50.47598 19.09310 1000 ft 0 kts 269°
2026-05-05 14:37 50.47597 19.09089 1001 ft 53 kts 270°
2026-05-05 14:37 50.47599 19.08126 997 ft 121 kts 270°
2026-05-05 14:37 50.47600 19.06503 997 ft 175 kts 272°
2026-05-05 14:38 50.47657 19.04459 1538 ft 188 kts 269°
2026-05-05 14:38 50.47693 19.02409 2417 ft 192 kts 268°
2026-05-05 14:38 50.47721 19.00310 3167 ft 199 kts 271°
2026-05-05 14:38 50.47685 18.98032 3409 ft 218 kts 251°
2026-05-05 14:39 50.46777 18.96133 3844 ft 223 kts 211°
2026-05-05 14:39 50.45248 18.95449 4152 ft 246 kts 178°
2026-05-05 14:39 50.43548 18.96085 4815 ft 257 kts 164°
2026-05-05 14:39 50.41867 18.97098 5614 ft 258 kts 161°
2026-05-05 14:40 50.40203 18.98178 6433 ft 260 kts 161°
2026-05-05 14:40 50.38509 18.99281 7117 ft 266 kts 161°
2026-05-05 14:40 50.36784 19.00400 7870 ft 269 kts 161°
2026-05-05 14:40 50.35034 19.01521 8589 ft 274 kts 161°
2026-05-05 14:41 50.33251 19.02655 9332 ft 278 kts 161°
2026-05-05 14:41 50.31480 19.03799 10027 ft 282 kts 161°
2026-05-05 14:41 50.29746 19.04931 10276 ft 301 kts 161°
2026-05-05 14:41 50.27770 19.06205 10457 ft 322 kts 161°
2026-05-05 14:42 50.26465 19.07038 10683 ft 330 kts 161°
2026-05-05 14:42 50.23645 19.08825 11470 ft 337 kts 161°
2026-05-05 14:42 50.21436 19.10211 12221 ft 339 kts 161°
2026-05-05 14:42 50.20051 19.11075 12708 ft 340 kts 161°
2026-05-05 14:43 50.17797 19.12476 13500 ft 343 kts 162°
2026-05-05 14:43 50.14882 19.14276 14403 ft 346 kts 162°
2026-05-05 14:43 50.13365 19.15209 14882 ft 348 kts 162°
2026-05-05 14:43 50.10361 19.17056 15812 ft 352 kts 161°
2026-05-05 14:44 50.08843 19.17988 16255 ft 355 kts 161°
2026-05-05 14:44 50.06512 19.19417 16943 ft 358 kts 161°
2026-05-05 14:44 50.04184 19.20843 17638 ft 361 kts 161°
2026-05-05 14:44 50.01865 19.22260 18270 ft 364 kts 161°
2026-05-05 14:45 49.99540 19.23680 18784 ft 369 kts 161°
2026-05-05 14:45 49.97137 19.25146 19304 ft 373 kts 161°
2026-05-05 14:45 49.94706 19.26628 19845 ft 378 kts 161°
2026-05-05 14:45 49.92298 19.28095 20354 ft 382 kts 161°
2026-05-05 14:46 49.89875 19.29569 20874 ft 385 kts 161°
2026-05-05 14:46 49.87314 19.31125 21390 ft 390 kts 161°
2026-05-05 14:46 49.84769 19.32670 21866 ft 395 kts 161°
2026-05-05 14:46 49.82217 19.34219 22372 ft 398 kts 161°
2026-05-05 14:47 49.79614 19.35795 22838 ft 402 kts 162°
2026-05-05 14:47 49.77027 19.37359 23382 ft 404 kts 161°
2026-05-05 14:47 49.74362 19.38970 23717 ft 411 kts 162°
2026-05-05 14:47 49.71734 19.40559 24197 ft 411 kts 162°
2026-05-05 14:48 49.69023 19.42190 24649 ft 413 kts 162°
2026-05-05 14:48 49.66466 19.43364 25022 ft 411 kts 172°
2026-05-05 14:48 49.63651 19.43997 25469 ft 411 kts 176°
2026-05-05 14:48 49.60895 19.44523 25827 ft 414 kts 176°
2026-05-05 14:49 49.58037 19.45052 26298 ft 414 kts 176°
2026-05-05 14:49 49.55167 19.45589 26641 ft 418 kts 176°
2026-05-05 14:49 49.52263 19.46138 26988 ft 421 kts 176°
2026-05-05 14:49 49.49406 19.46693 27512 ft 419 kts 175°
2026-05-05 14:50 49.46501 19.47264 27829 ft 421 kts 175°
2026-05-05 14:50 49.43586 19.47843 28132 ft 424 kts 175°
2026-05-05 14:50 49.40654 19.48426 28441 ft 426 kts 175°
2026-05-05 14:50 49.37711 19.49013 28717 ft 429 kts 175°
2026-05-05 14:51 49.34734 19.49607 29038 ft 429 kts 175°
2026-05-05 14:51 49.31769 19.50202 29358 ft 431 kts 175°
2026-05-05 14:51 49.28785 19.50798 29592 ft 434 kts 175°
2026-05-05 14:51 49.25794 19.51393 29938 ft 434 kts 175°
2026-05-05 14:52 49.22780 19.51992 30128 ft 438 kts 175°
2026-05-05 14:52 49.19761 19.52593 30388 ft 438 kts 175°
2026-05-05 14:52 49.16727 19.53197 30675 ft 438 kts 175°
2026-05-05 14:52 49.13744 19.53790 30979 ft 438 kts 175°
2026-05-05 14:53 49.10739 19.54386 31396 ft 434 kts 175°
2026-05-05 14:53 49.07735 19.54981 31715 ft 434 kts 175°
2026-05-05 14:53 49.04734 19.55575 31997 ft 434 kts 175°
2026-05-05 14:53 49.01746 19.56165 32311 ft 433 kts 175°
2026-05-05 14:54 48.98747 19.56755 32534 ft 434 kts 175°
2026-05-05 14:54 48.95748 19.57343 32784 ft 435 kts 175°
2026-05-05 14:54 48.92742 19.57934 33062 ft 436 kts 175°
2026-05-05 14:54 48.89735 19.58526 33327 ft 436 kts 175°
2026-05-05 14:55 48.86721 19.59119 33642 ft 436 kts 175°
2026-05-05 14:55 48.83706 19.59709 33922 ft 436 kts 175°
2026-05-05 14:55 48.80729 19.60288 34141 ft 437 kts 175°
2026-05-05 14:55 48.77675 19.60885 34394 ft 437 kts 175°
2026-05-05 14:56 48.74696 19.61466 34642 ft 437 kts 175°
2026-05-05 14:56 48.71683 19.62055 34902 ft 436 kts 175°
2026-05-05 14:56 48.68675 19.62639 35122 ft 436 kts 175°
2026-05-05 14:56 48.65659 19.63228 35347 ft 437 kts 175°
2026-05-05 14:57 48.62641 19.63815 35572 ft 437 kts 175°
2026-05-05 14:57 48.59622 19.64401 35809 ft 437 kts 175°
2026-05-05 14:57 48.56605 19.64984 36039 ft 437 kts 175°
2026-05-05 14:57 48.53626 19.65558 36240 ft 437 kts 175°
2026-05-05 14:58 48.50568 19.66147 36427 ft 438 kts 175°
2026-05-05 14:58 48.47586 19.66724 36627 ft 438 kts 175°
2026-05-05 14:58 48.44553 19.67311 36786 ft 439 kts 175°
2026-05-05 14:58 48.41529 19.67894 36900 ft 437 kts 175°
2026-05-05 14:59 48.35471 19.69057 36922 ft 440 kts 175°
2026-05-05 14:59 48.29396 19.70222 36916 ft 441 kts 175°
2026-05-05 15:00 48.24342 19.71189 36916 ft 441 kts 175°
2026-05-05 15:00 48.17204 19.72553 36918 ft 442 kts 175°
2026-05-05 15:01 48.11131 19.73709 36919 ft 443 kts 175°
2026-05-05 15:01 48.05016 19.74872 36909 ft 442 kts 175°
2026-05-05 15:02 47.98917 19.76030 36916 ft 442 kts 175°
2026-05-05 15:02 47.92831 19.77180 36916 ft 441 kts 175°
2026-05-05 15:03 47.86746 19.78327 36922 ft 440 kts 175°
2026-05-05 15:03 47.80674 19.79469 36924 ft 439 kts 175°
2026-05-05 15:04 47.74611 19.80606 36915 ft 439 kts 175°
2026-05-05 15:04 47.68553 19.81741 36917 ft 438 kts 175°
2026-05-05 15:05 47.59475 19.83436 36914 ft 438 kts 175°
2026-05-05 15:06 47.53469 19.84555 36916 ft 438 kts 175°
2026-05-05 15:06 47.47413 19.85680 36921 ft 438 kts 175°
2026-05-05 15:07 47.41350 19.86804 36914 ft 439 kts 175°
2026-05-05 15:07 47.35309 19.87919 36919 ft 440 kts 175°
2026-05-05 15:08 47.29225 19.89042 36921 ft 441 kts 175°
2026-05-05 15:08 47.23127 19.90165 36922 ft 442 kts 175°
2026-05-05 15:09 47.17026 19.91285 36913 ft 442 kts 175°
2026-05-05 15:09 47.10900 19.92408 36916 ft 443 kts 174°
2026-05-05 15:10 47.04807 19.93521 36932 ft 444 kts 174°
2026-05-05 15:10 46.98669 19.94641 36932 ft 444 kts 174°
2026-05-05 15:11 46.92524 19.95759 36936 ft 445 kts 174°
2026-05-05 15:11 46.86373 19.96875 36935 ft 445 kts 174°
2026-05-05 15:12 46.80223 19.97989 36929 ft 445 kts 174°
2026-05-05 15:12 46.74102 19.99095 36926 ft 445 kts 174°
2026-05-05 15:13 46.67963 20.00202 36925 ft 444 kts 174°
2026-05-05 15:13 46.61819 20.01307 36918 ft 444 kts 174°
2026-05-05 15:14 46.55722 20.02401 36922 ft 444 kts 174°
2026-05-05 15:14 46.49592 20.03499 36921 ft 444 kts 174°
2026-05-05 15:15 46.43466 20.04593 36918 ft 444 kts 174°
2026-05-05 15:15 46.37333 20.05686 36922 ft 444 kts 174°
2026-05-05 15:16 46.31192 20.06779 36923 ft 444 kts 174°
2026-05-05 15:16 46.25063 20.07867 36925 ft 444 kts 174°
2026-05-05 15:17 46.18926 20.08953 36926 ft 444 kts 174°
2026-05-05 15:17 46.12950 20.11262 36939 ft 447 kts 159°
2026-05-05 15:18 46.07256 20.14715 36927 ft 448 kts 158°
2026-05-05 15:18 46.01502 20.18239 36923 ft 448 kts 159°
2026-05-05 15:19 45.95730 20.21714 36929 ft 449 kts 159°
2026-05-05 15:19 45.89991 20.25127 36930 ft 450 kts 159°
2026-05-05 15:20 45.84193 20.28557 36929 ft 450 kts 159°
2026-05-05 15:20 45.78392 20.31980 36934 ft 451 kts 159°
2026-05-05 15:21 45.72577 20.35406 36931 ft 452 kts 159°
2026-05-05 15:21 45.66754 20.38829 36933 ft 452 kts 159°
2026-05-05 15:22 45.60934 20.42243 36937 ft 453 kts 159°
2026-05-05 15:22 45.55134 20.45638 36934 ft 453 kts 159°
2026-05-05 15:23 45.49288 20.49052 36938 ft 453 kts 159°
2026-05-05 15:23 45.43455 20.52450 36938 ft 453 kts 159°
2026-05-05 15:24 45.37608 20.55849 36949 ft 453 kts 159°
2026-05-05 15:24 45.31769 20.59235 36941 ft 453 kts 159°
2026-05-05 15:25 45.25957 20.62599 36951 ft 453 kts 159°
2026-05-05 15:25 45.20104 20.65979 36945 ft 454 kts 159°
2026-05-05 15:26 45.14252 20.69351 36950 ft 454 kts 159°
2026-05-05 15:26 45.08394 20.72718 36955 ft 454 kts 159°
2026-05-05 15:27 45.02532 20.76080 36956 ft 454 kts 159°
2026-05-05 15:27 44.96709 20.79414 36947 ft 455 kts 159°
2026-05-05 15:28 44.90838 20.82766 36960 ft 455 kts 159°
2026-05-05 15:28 44.84962 20.86114 36963 ft 455 kts 159°
2026-05-05 15:29 44.79083 20.89457 36958 ft 456 kts 159°
2026-05-05 15:29 44.73195 20.92797 36963 ft 456 kts 159°
2026-05-05 15:30 44.67301 20.96134 36957 ft 457 kts 159°
2026-05-05 15:30 44.62386 20.98910 36954 ft 457 kts 159°
2026-05-05 15:31 44.55517 21.02782 36950 ft 458 kts 159°
2026-05-05 15:31 44.49605 21.06107 36958 ft 458 kts 160°
2026-05-05 15:32 44.44664 21.08880 36964 ft 459 kts 160°
2026-05-05 15:32 44.38736 21.12200 36955 ft 459 kts 160°
2026-05-05 15:33 44.32797 21.15519 36958 ft 460 kts 160°
2026-05-05 15:33 44.26850 21.18835 36960 ft 460 kts 160°
2026-05-05 15:34 44.20887 21.22154 36965 ft 461 kts 160°
2026-05-05 15:34 44.14940 21.25455 36968 ft 461 kts 160°
2026-05-05 15:35 44.09002 21.28745 36962 ft 461 kts 160°
2026-05-05 15:35 44.03030 21.32046 36960 ft 461 kts 160°
2026-05-05 15:36 43.97062 21.35338 36963 ft 462 kts 160°
2026-05-05 15:36 43.91069 21.38637 36960 ft 462 kts 160°
2026-05-05 15:37 43.85097 21.41917 36968 ft 462 kts 160°
2026-05-05 15:37 43.79115 21.45196 36967 ft 463 kts 160°
2026-05-05 15:38 43.73115 21.48477 36973 ft 463 kts 160°
2026-05-05 15:38 43.67143 21.51735 36965 ft 464 kts 160°
2026-05-05 15:39 43.61132 21.55009 36969 ft 464 kts 160°
2026-05-05 15:39 43.55126 21.58272 36973 ft 464 kts 160°
2026-05-05 15:40 43.49097 21.61540 36971 ft 465 kts 160°
2026-05-05 15:40 43.43079 21.64796 36964 ft 465 kts 160°
2026-05-05 15:41 43.37080 21.68035 36958 ft 465 kts 160°
2026-05-05 15:41 43.31043 21.71287 36968 ft 465 kts 160°
2026-05-05 15:42 43.25009 21.74530 36971 ft 466 kts 160°
2026-05-05 15:42 43.18970 21.77770 36968 ft 466 kts 160°
2026-05-05 15:43 43.12930 21.81002 36971 ft 466 kts 160°
2026-05-05 15:43 43.06910 21.84218 36980 ft 467 kts 160°
2026-05-05 15:44 43.00859 21.87443 36976 ft 467 kts 160°
2026-05-05 15:44 42.94787 21.90673 36996 ft 468 kts 160°
2026-05-05 15:45 42.88726 21.93890 36994 ft 468 kts 160°
2026-05-05 15:45 42.82659 21.97103 36999 ft 469 kts 160°
2026-05-05 15:46 42.76536 22.00338 36596 ft 471 kts 160°
2026-05-05 15:46 42.73500 22.01941 36256 ft 464 kts 160°
2026-05-05 15:46 42.70513 22.03517 35744 ft 458 kts 160°
2026-05-05 15:46 42.67556 22.05075 35161 ft 455 kts 160°
2026-05-05 15:47 42.64613 22.06614 34578 ft 452 kts 162°
2026-05-05 15:47 42.62635 22.07447 34206 ft 448 kts 168°
2026-05-05 15:47 42.58588 22.08718 33449 ft 442 kts 170°
2026-05-05 15:47 42.55629 22.09566 32893 ft 438 kts 171°
2026-05-05 15:48 42.52675 22.10402 32339 ft 435 kts 171°
2026-05-05 15:48 42.49710 22.11252 31768 ft 432 kts 171°
2026-05-05 15:48 42.46777 22.12109 31235 ft 429 kts 170°
2026-05-05 15:48 42.43865 22.12972 30704 ft 426 kts 170°
2026-05-05 15:49 42.40978 22.13836 30167 ft 424 kts 170°
2026-05-05 15:49 42.38112 22.14698 29589 ft 420 kts 170°
2026-05-05 15:49 42.35262 22.15557 29033 ft 417 kts 170°
2026-05-05 15:49 42.32446 22.16406 28472 ft 413 kts 170°
2026-05-05 15:50 42.29653 22.17247 27926 ft 409 kts 170°
2026-05-05 15:50 42.26885 22.18079 27379 ft 406 kts 169°
2026-05-05 15:50 42.24140 22.18903 26908 ft 401 kts 169°
2026-05-05 15:50 42.21466 22.19706 26515 ft 394 kts 169°
2026-05-05 15:51 42.18805 22.20504 26152 ft 387 kts 169°
2026-05-05 15:51 42.16197 22.21286 25800 ft 381 kts 169°
2026-05-05 15:51 42.13648 22.22048 25460 ft 375 kts 169°
2026-05-05 15:51 42.11091 22.22812 25119 ft 373 kts 169°
2026-05-05 15:52 42.08557 22.23568 24792 ft 372 kts 169°
2026-05-05 15:52 42.06040 22.24318 24449 ft 370 kts 168°
2026-05-05 15:52 42.03524 22.25068 24115 ft 369 kts 168°
2026-05-05 15:52 42.01029 22.25811 23790 ft 368 kts 168°
2026-05-05 15:53 41.98526 22.26556 23402 ft 368 kts 168°
2026-05-05 15:53 41.96030 22.27299 23016 ft 366 kts 168°
2026-05-05 15:53 41.93548 22.28037 22659 ft 365 kts 168°
2026-05-05 15:53 41.91068 22.28773 22313 ft 368 kts 168°
2026-05-05 15:54 41.88493 22.29536 22001 ft 389 kts 168°
2026-05-05 15:54 41.85812 22.30330 21616 ft 396 kts 168°
2026-05-05 15:54 41.83157 22.31117 21231 ft 395 kts 168°
2026-05-05 15:54 41.80480 22.31910 20856 ft 393 kts 168°
2026-05-05 15:55 41.77814 22.32699 20482 ft 390 kts 168°
2026-05-05 15:55 41.75177 22.33479 20108 ft 388 kts 167°
2026-05-05 15:55 41.72544 22.34257 19748 ft 386 kts 167°
2026-05-05 15:55 41.69927 22.35029 19391 ft 384 kts 167°
2026-05-05 15:56 41.67311 22.35800 19013 ft 383 kts 167°
2026-05-05 15:56 41.64722 22.36563 18653 ft 379 kts 167°
2026-05-05 15:56 41.62164 22.37315 18281 ft 372 kts 167°
2026-05-05 15:56 41.59641 22.38057 17890 ft 370 kts 167°
2026-05-05 15:57 41.57144 22.38791 17512 ft 367 kts 167°
2026-05-05 15:57 41.54658 22.39521 17149 ft 364 kts 167°
2026-05-05 15:57 41.52197 22.40243 16785 ft 360 kts 167°
2026-05-05 15:57 41.49753 22.40959 16439 ft 357 kts 167°
2026-05-05 15:58 41.47378 22.41656 16087 ft 355 kts 167°
2026-05-05 15:58 41.44960 22.42363 15748 ft 352 kts 167°
2026-05-05 15:58 41.42573 22.43062 15407 ft 349 kts 167°
2026-05-05 15:58 41.40210 22.43753 15070 ft 347 kts 167°
2026-05-05 15:59 41.37856 22.44441 14729 ft 346 kts 167°
2026-05-05 15:59 41.35510 22.45125 14391 ft 344 kts 167°
2026-05-05 15:59 41.33173 22.45806 14037 ft 343 kts 167°
2026-05-05 15:59 41.30842 22.46486 13699 ft 342 kts 167°
2026-05-05 16:00 41.28522 22.47161 13320 ft 341 kts 167°
2026-05-05 16:00 41.26219 22.47832 12957 ft 339 kts 167°
2026-05-05 16:00 41.23912 22.48503 12612 ft 337 kts 167°
2026-05-05 16:00 41.21632 22.49166 12261 ft 334 kts 167°
2026-05-05 16:01 41.19397 22.49815 11931 ft 331 kts 167°
2026-05-05 16:01 41.17123 22.50475 11579 ft 327 kts 167°
2026-05-05 16:01 41.14954 22.51104 11252 ft 319 kts 167°
2026-05-05 16:01 41.12847 22.51900 10917 ft 314 kts 154°
2026-05-05 16:02 41.11053 22.53482 10625 ft 305 kts 141°
2026-05-05 16:02 41.09401 22.55195 10313 ft 297 kts 141°
2026-05-05 16:02 41.07806 22.56870 10020 ft 289 kts 141°
2026-05-05 16:02 41.06246 22.58506 9701 ft 283 kts 141°
2026-05-05 16:03 41.04708 22.60111 9406 ft 279 kts 141°
2026-05-05 16:03 41.03187 22.61692 9118 ft 277 kts 141°
2026-05-05 16:03 41.01670 22.63263 8844 ft 277 kts 141°
2026-05-05 16:03 41.00152 22.64832 8573 ft 276 kts 141°
2026-05-05 16:04 40.98633 22.66398 8277 ft 277 kts 142°
2026-05-05 16:04 40.97111 22.67964 8003 ft 279 kts 142°
2026-05-05 16:04 40.95566 22.69554 7711 ft 281 kts 142°
2026-05-05 16:04 40.94026 22.71136 7407 ft 280 kts 142°
2026-05-05 16:05 40.92487 22.72716 7135 ft 280 kts 142°
2026-05-05 16:05 40.90951 22.74293 6855 ft 279 kts 142°
2026-05-05 16:05 40.89436 22.75846 6583 ft 279 kts 142°
2026-05-05 16:05 40.87900 22.77420 6284 ft 280 kts 142°
2026-05-05 16:06 40.86368 22.78988 5986 ft 277 kts 142°
2026-05-05 16:06 40.84857 22.80535 5696 ft 274 kts 143°
2026-05-05 16:06 40.83358 22.82068 5404 ft 270 kts 143°
2026-05-05 16:06 40.81886 22.83574 5140 ft 266 kts 143°
2026-05-05 16:07 40.80433 22.85059 4862 ft 261 kts 143°
2026-05-05 16:07 40.79025 22.86496 4641 ft 249 kts 143°
2026-05-05 16:07 40.77685 22.87865 4350 ft 239 kts 143°
2026-05-05 16:07 40.76389 22.89142 4117 ft 226 kts 151°
2026-05-05 16:08 40.74974 22.89812 3891 ft 213 kts 169°
2026-05-05 16:08 40.73571 22.90233 3648 ft 202 kts 169°
2026-05-05 16:08 40.72233 22.90648 3481 ft 194 kts 169°
2026-05-05 16:08 40.70926 22.91058 3296 ft 193 kts 169°
2026-05-05 16:09 40.69627 22.91468 3088 ft 190 kts 169°
2026-05-05 16:09 40.68360 22.91870 2875 ft 184 kts 169°
2026-05-05 16:09 40.67130 22.92263 2716 ft 181 kts 170°
2026-05-05 16:09 40.65889 22.92656 2576 ft 184 kts 169°
2026-05-05 16:10 40.64661 22.93047 2328 ft 177 kts 169°
2026-05-05 16:10 40.63498 22.93419 2092 ft 167 kts 169°
2026-05-05 16:10 40.62379 22.93777 1884 ft 165 kts 170°
2026-05-05 16:10 40.61294 22.94121 1681 ft 161 kts 169°
2026-05-05 16:11 40.60212 22.94467 1451 ft 158 kts 168°
2026-05-05 16:11 40.57121 22.95455 926 ft 154 kts 168°
2026-05-05 16:12 40.56084 22.95788 693 ft 154 kts 167°
2026-05-05 16:12 40.54008 22.96456 272 ft 151 kts 168°
2026-05-05 16:13 40.51609 22.97212 29 ft 50 kts 166°
2026-05-05 16:13 40.51532 22.97400 28 ft 19 kts 40°
2026-05-05 16:13 40.51645 22.97383 28 ft 16 kts 346°
2026-05-05 16:14 40.51846 22.97319 27 ft 13 kts 346°
2026-05-05 16:14 40.52023 22.97263 26 ft 13 kts 346°
2026-05-05 16:15 40.52086 22.97397 27 ft 12 kts 104°
2026-05-05 16:15 40.52046 22.97610 27 ft 12 kts 104°
2026-05-05 16:16 40.52092 22.97728 28 ft 12 kts 317°
2026-05-05 16:16 40.52212 22.97599 28 ft 11 kts 316°
2026-05-05 16:17 40.52313 22.97469 28 ft 8 kts 317°
2026-05-05 16:17 40.52356 22.97475 27 ft 6 kts 41°
2026-05-05 16:18 40.52373 22.97496 27 ft 0 kts 44°